Tracking 25405 objects as of 27-Jan-2022
HD Live streaming from Space Station
objects crossing your sky now

RADUGA 1-4

Track RADUGA 1-4 now!
RADUGA 1-4 is classified as:


NORAD ID: 25642
Int'l Code: 1999-010A
Perigee: 35,800.8 km
Apogee: 35,825.8 km
Inclination: 15.1 °
Period: 1,437.1 minutes
Semi major axis: 42184 km
RCS: 12.5893 m2 (large)
Launch date: February 28, 1999
Source: Commonwealth of Independent States (former USSR) (CIS)
Launch site: TYURATAM MISSILE AND SPACE COMPLEX (TTMTR)

Military communication.
aabbcc
Your satellite tracking list
Your tracking list is empty




NASA's NSSDC Master Catalog

Two Line Element Set (TLE):
1 25642U 99010A   22026.02777771  .00000064  00000-0  00000-0 0  9998
2 25642  15.1406  14.9769 0002971 296.3278 239.7724  1.00202052 83872
Source of the keplerian elements: AFSPC